Year,Month,Day,Hour,Minute,Value (Times are PST for windspeed in km/hr)
2011,07,05,00,00,9.50
2011,07,05,00,01,10.00
2011,07,05,00,02,11.60
2011,07,05,00,03,11.70
2011,07,05,00,04,10.80
2011,07,05,00,05,11.10
2011,07,05,00,06,10.10
2011,07,05,00,07,11.30
2011,07,05,00,08,10.90
2011,07,05,00,09,10.60
2011,07,05,00,10,10.20
2011,07,05,00,11,11.60
2011,07,05,00,12,11.60
2011,07,05,00,13,10.70
2011,07,05,00,14,10.70
2011,07,05,00,15,10.80
2011,07,05,00,16,12.20
2011,07,05,00,17,10.50
2011,07,05,00,18,10.90
2011,07,05,00,19,10.50
2011,07,05,00,20,10.80
2011,07,05,00,21,10.10
2011,07,05,00,22,10.00
2011,07,05,00,23,9.20
2011,07,05,00,24,10.50
2011,07,05,00,25,9.90
2011,07,05,00,26,8.10
2011,07,05,00,27,8.70
2011,07,05,00,28,7.00
2011,07,05,00,29,8.10
2011,07,05,00,30,9.40
2011,07,05,00,31,8.50
2011,07,05,00,32,9.90
2011,07,05,00,33,10.50
2011,07,05,00,34,10.30
2011,07,05,00,35,10.90
2011,07,05,00,36,8.80
2011,07,05,00,37,9.70
2011,07,05,00,38,9.30
2011,07,05,00,39,11.20
2011,07,05,00,40,9.30
2011,07,05,00,41,9.90
2011,07,05,00,42,9.70
2011,07,05,00,43,8.20
2011,07,05,00,44,7.70
2011,07,05,00,45,7.60
2011,07,05,00,46,7.40
2011,07,05,00,47,8.40
2011,07,05,00,48,8.40
2011,07,05,00,49,7.80
2011,07,05,00,50,8.70
2011,07,05,00,51,8.90
2011,07,05,00,52,8.00
2011,07,05,00,53,8.10
2011,07,05,00,54,7.30
2011,07,05,00,55,6.40
2011,07,05,00,56,7.30
2011,07,05,00,57,5.80
2011,07,05,00,58,5.40
2011,07,05,00,59,6.70
2011,07,05,01,00,5.10
2011,07,05,01,01,5.30
2011,07,05,01,02,6.10
2011,07,05,01,03,5.10
2011,07,05,01,04,6.10
2011,07,05,01,05,6.10
2011,07,05,01,06,4.60
2011,07,05,01,07,4.20
2011,07,05,01,08,5.60
2011,07,05,01,09,6.00
2011,07,05,01,10,5.90
2011,07,05,01,11,6.80
2011,07,05,01,12,7.40
2011,07,05,01,13,7.10
2011,07,05,01,14,8.60
2011,07,05,01,15,8.40
2011,07,05,01,16,7.90
2011,07,05,01,17,8.50
2011,07,05,01,18,8.10
2011,07,05,01,19,9.30
2011,07,05,01,20,10.20
2011,07,05,01,21,10.10
2011,07,05,01,22,11.10
2011,07,05,01,23,10.00
2011,07,05,01,24,10.00
2011,07,05,01,25,8.90
2011,07,05,01,26,8.40
2011,07,05,01,27,7.30
2011,07,05,01,28,8.60
2011,07,05,01,29,8.90
2011,07,05,01,30,8.40
2011,07,05,01,31,7.40
2011,07,05,01,32,6.70
2011,07,05,01,33,9.10
2011,07,05,01,34,9.80
2011,07,05,01,35,7.20
2011,07,05,01,36,8.10
2011,07,05,01,37,9.20
2011,07,05,01,38,7.00
2011,07,05,01,39,6.70
2011,07,05,01,40,6.40
2011,07,05,01,41,6.70
2011,07,05,01,42,6.60
2011,07,05,01,43,5.50
2011,07,05,01,44,4.60
2011,07,05,01,45,3.60
2011,07,05,01,46,4.20
2011,07,05,01,47,3.50
2011,07,05,01,48,2.90
2011,07,05,01,49,3.90
2011,07,05,01,50,2.30
2011,07,05,01,51,3.00
2011,07,05,01,52,4.90
2011,07,05,01,53,5.40
2011,07,05,01,54,4.10
2011,07,05,01,55,1.80
2011,07,05,01,56,4.70
2011,07,05,01,57,4.30
2011,07,05,01,58,4.80
2011,07,05,01,59,4.50
2011,07,05,02,00,5.90
2011,07,05,02,01,5.70
2011,07,05,02,02,7.40
2011,07,05,02,03,6.80
2011,07,05,02,04,7.10
2011,07,05,02,05,6.70
2011,07,05,02,06,7.10
2011,07,05,02,07,6.40
2011,07,05,02,08,6.10
2011,07,05,02,09,4.60
2011,07,05,02,10,3.10
2011,07,05,02,11,4.20
2011,07,05,02,12,4.30
2011,07,05,02,13,4.00
2011,07,05,02,14,3.20
2011,07,05,02,15,4.90
2011,07,05,02,16,6.00
2011,07,05,02,17,5.30
2011,07,05,02,18,4.20
2011,07,05,02,19,4.20
2011,07,05,02,20,4.30
2011,07,05,02,21,4.80
2011,07,05,02,22,5.60
2011,07,05,02,23,5.90
2011,07,05,02,24,5.20
2011,07,05,02,25,6.70
2011,07,05,02,26,6.80
2011,07,05,02,27,8.20
2011,07,05,02,28,7.00
2011,07,05,02,29,5.40
2011,07,05,02,30,5.50
2011,07,05,02,31,6.80
2011,07,05,02,32,7.20
2011,07,05,02,33,6.10
2011,07,05,02,34,7.00
2011,07,05,02,35,8.10
2011,07,05,02,36,8.00
2011,07,05,02,37,6.30
2011,07,05,02,38,7.60
2011,07,05,02,39,7.30
2011,07,05,02,40,8.20
2011,07,05,02,41,7.60
2011,07,05,02,42,7.00
2011,07,05,02,43,6.20
2011,07,05,02,44,6.00
2011,07,05,02,45,7.30
2011,07,05,02,46,6.50
2011,07,05,02,47,5.40
2011,07,05,02,48,6.40
2011,07,05,02,49,7.40
2011,07,05,02,50,7.30
2011,07,05,02,51,6.90
2011,07,05,02,52,5.90
2011,07,05,02,53,6.40
2011,07,05,02,54,5.40
2011,07,05,02,55,6.20
2011,07,05,02,56,6.90
2011,07,05,02,57,7.00
2011,07,05,02,58,6.30
2011,07,05,02,59,5.60
2011,07,05,03,00,5.10
2011,07,05,03,01,5.20
2011,07,05,03,02,5.50
2011,07,05,03,03,6.40
2011,07,05,03,04,5.80
2011,07,05,03,05,5.50
2011,07,05,03,06,6.00
2011,07,05,03,07,6.00
2011,07,05,03,08,7.20
2011,07,05,03,09,5.20
2011,07,05,03,10,6.40
2011,07,05,03,11,6.90
2011,07,05,03,12,6.50
2011,07,05,03,13,6.60
2011,07,05,03,14,6.50
2011,07,05,03,15,7.60
2011,07,05,03,16,5.80
2011,07,05,03,17,5.70
2011,07,05,03,18,7.00
2011,07,05,03,19,7.40
2011,07,05,03,20,5.90
2011,07,05,03,21,6.30
2011,07,05,03,22,4.30
2011,07,05,03,23,2.80
2011,07,05,03,24,3.00
2011,07,05,03,25,1.10
2011,07,05,03,26,1.70
2011,07,05,03,27,3.50
2011,07,05,03,28,4.10
2011,07,05,03,29,4.10
2011,07,05,03,30,5.40
2011,07,05,03,31,4.30
2011,07,05,03,32,4.70
2011,07,05,03,33,5.00
2011,07,05,03,34,5.40
2011,07,05,03,35,4.30
2011,07,05,03,36,1.40
2011,07,05,03,37,3.10
2011,07,05,03,38,3.70
2011,07,05,03,39,5.20
2011,07,05,03,40,5.80
2011,07,05,03,41,6.30
2011,07,05,03,42,6.10
2011,07,05,03,43,5.10
2011,07,05,03,44,4.70
2011,07,05,03,45,3.00
2011,07,05,03,46,1.60
2011,07,05,03,47,0.00
2011,07,05,03,48,0.00
2011,07,05,03,49,0.00
2011,07,05,03,50,0.00
2011,07,05,03,51,0.00
2011,07,05,03,52,0.00
2011,07,05,03,53,0.00
2011,07,05,03,54,0.00
2011,07,05,03,55,0.00
2011,07,05,03,56,0.00
2011,07,05,03,57,0.00
2011,07,05,03,58,0.00
2011,07,05,03,59,0.00
2011,07,05,04,00,0.00
2011,07,05,04,01,0.00
2011,07,05,04,02,0.00
2011,07,05,04,03,0.00
2011,07,05,04,04,0.00
2011,07,05,04,05,0.70
2011,07,05,04,06,0.00
2011,07,05,04,07,0.00
2011,07,05,04,08,0.00
2011,07,05,04,09,0.00
2011,07,05,04,10,0.00
2011,07,05,04,11,0.00
2011,07,05,04,12,0.00
2011,07,05,04,13,0.00
2011,07,05,04,14,0.00
2011,07,05,04,15,0.00
2011,07,05,04,16,0.00
2011,07,05,04,17,0.00
2011,07,05,04,18,0.00
2011,07,05,04,19,0.00
2011,07,05,04,20,0.00
2011,07,05,04,21,0.00
2011,07,05,04,22,0.00
2011,07,05,04,23,0.00
2011,07,05,04,24,0.00
2011,07,05,04,25,0.00
2011,07,05,04,26,0.00
2011,07,05,04,27,0.00
2011,07,05,04,28,0.00
2011,07,05,04,29,0.00
2011,07,05,04,30,0.00
2011,07,05,04,31,0.00
2011,07,05,04,32,0.00
2011,07,05,04,33,0.00
2011,07,05,04,34,0.00
2011,07,05,04,35,0.00
2011,07,05,04,36,0.00
2011,07,05,04,37,0.00
2011,07,05,04,38,0.00
2011,07,05,04,39,0.00
2011,07,05,04,40,0.00
2011,07,05,04,41,0.00
2011,07,05,04,42,0.00
2011,07,05,04,43,0.00
2011,07,05,04,44,0.00
2011,07,05,04,45,0.00
2011,07,05,04,46,0.00
2011,07,05,04,47,0.00
2011,07,05,04,48,0.00
2011,07,05,04,49,0.00
2011,07,05,04,50,0.00
2011,07,05,04,51,0.00
2011,07,05,04,52,0.00
2011,07,05,04,53,0.00
2011,07,05,04,54,0.00
2011,07,05,04,55,0.00
2011,07,05,04,56,0.00
2011,07,05,04,57,0.00
2011,07,05,04,58,0.00
2011,07,05,04,59,0.00
2011,07,05,05,00,0.00
2011,07,05,05,01,0.00
2011,07,05,05,02,0.00
2011,07,05,05,03,0.00
2011,07,05,05,04,0.30
2011,07,05,05,05,1.80
2011,07,05,05,06,2.20
2011,07,05,05,07,3.40
2011,07,05,05,08,3.70
2011,07,05,05,09,3.30
2011,07,05,05,10,0.20
2011,07,05,05,11,0.10
2011,07,05,05,12,0.90
2011,07,05,05,13,0.20
2011,07,05,05,14,0.00
2011,07,05,05,15,0.00
2011,07,05,05,16,0.00
2011,07,05,05,17,0.00
2011,07,05,05,18,0.00
2011,07,05,05,19,0.00
2011,07,05,05,20,0.10
2011,07,05,05,21,0.00
2011,07,05,05,22,0.00
2011,07,05,05,23,0.00
2011,07,05,05,24,0.00
2011,07,05,05,25,0.00
2011,07,05,05,26,0.00
2011,07,05,05,27,0.00
2011,07,05,05,28,0.00
2011,07,05,05,29,0.00
2011,07,05,05,30,0.00
2011,07,05,05,31,0.00
2011,07,05,05,32,0.00
2011,07,05,05,33,0.00
2011,07,05,05,34,0.00
2011,07,05,05,35,0.00
2011,07,05,05,36,0.00
2011,07,05,05,37,0.00
2011,07,05,05,38,0.00
2011,07,05,05,39,0.00
2011,07,05,05,40,1.60
2011,07,05,05,41,0.30
2011,07,05,05,42,0.00
2011,07,05,05,43,0.20
2011,07,05,05,44,0.80
2011,07,05,05,45,0.20
2011,07,05,05,46,0.00
2011,07,05,05,47,0.00
2011,07,05,05,48,0.00
2011,07,05,05,49,0.00
2011,07,05,05,50,0.00
2011,07,05,05,51,0.00
2011,07,05,05,52,0.00
2011,07,05,05,53,0.00
2011,07,05,05,54,0.00
2011,07,05,05,55,0.00
2011,07,05,05,56,0.00
2011,07,05,05,57,0.00
2011,07,05,05,58,0.00
2011,07,05,05,59,0.10
2011,07,05,06,00,0.10
2011,07,05,06,01,0.10
2011,07,05,06,02,0.00
2011,07,05,06,03,0.10
2011,07,05,06,04,0.00
2011,07,05,06,05,0.00
2011,07,05,06,06,0.00
2011,07,05,06,07,0.00
2011,07,05,06,08,0.00
2011,07,05,06,09,0.00
2011,07,05,06,10,0.00
2011,07,05,06,11,0.00
2011,07,05,06,12,0.00
2011,07,05,06,13,0.00
2011,07,05,06,14,0.00
2011,07,05,06,15,0.00
2011,07,05,06,16,0.00
2011,07,05,06,17,0.00
2011,07,05,06,18,0.00
2011,07,05,06,19,0.00
2011,07,05,06,20,0.00
2011,07,05,06,21,0.00
2011,07,05,06,22,0.00
2011,07,05,06,23,0.00
2011,07,05,06,24,0.00
2011,07,05,06,25,0.00
2011,07,05,06,26,0.00
2011,07,05,06,27,0.00
2011,07,05,06,28,0.00
2011,07,05,06,29,0.00
2011,07,05,06,30,0.20
2011,07,05,06,31,0.10
2011,07,05,06,32,0.90
2011,07,05,06,33,0.20
2011,07,05,06,34,0.20
2011,07,05,06,35,0.20
2011,07,05,06,36,0.00
2011,07,05,06,37,0.00
2011,07,05,06,38,0.00
2011,07,05,06,39,0.00
2011,07,05,06,40,0.00
2011,07,05,06,41,0.00
2011,07,05,06,42,0.00
2011,07,05,06,43,0.00
2011,07,05,06,44,0.00
2011,07,05,06,45,0.00
2011,07,05,06,46,0.10
2011,07,05,06,47,0.00
2011,07,05,06,48,0.60
2011,07,05,06,49,0.60
2011,07,05,06,50,0.00
2011,07,05,06,51,0.00
2011,07,05,06,52,0.00
2011,07,05,06,53,0.00
2011,07,05,06,54,0.00
2011,07,05,06,55,0.00
2011,07,05,06,56,0.00
2011,07,05,06,57,0.00
2011,07,05,06,58,0.00
2011,07,05,06,59,0.00
2011,07,05,07,00,0.00
2011,07,05,07,01,0.00
2011,07,05,07,02,0.00
2011,07,05,07,03,0.00
2011,07,05,07,04,0.00
2011,07,05,07,05,0.00
2011,07,05,07,06,0.00
2011,07,05,07,07,0.00
2011,07,05,07,08,0.00
2011,07,05,07,09,0.00
2011,07,05,07,10,0.00
2011,07,05,07,11,1.30
2011,07,05,07,12,1.00
2011,07,05,07,13,0.20
2011,07,05,07,14,0.40
2011,07,05,07,15,0.00
2011,07,05,07,16,0.00
2011,07,05,07,17,0.00
2011,07,05,07,18,1.40
2011,07,05,07,19,1.50
2011,07,05,07,20,2.10
2011,07,05,07,21,0.90
2011,07,05,07,22,1.50
2011,07,05,07,23,1.70
2011,07,05,07,24,0.60
2011,07,05,07,25,0.30
2011,07,05,07,26,0.10
2011,07,05,07,27,0.00
2011,07,05,07,28,1.10
2011,07,05,07,29,2.10
2011,07,05,07,30,1.80
2011,07,05,07,31,0.80
2011,07,05,07,32,0.20
2011,07,05,07,33,0.00
2011,07,05,07,34,0.10
2011,07,05,07,35,0.60
2011,07,05,07,36,0.20
2011,07,05,07,37,0.60
2011,07,05,07,38,0.20
2011,07,05,07,39,0.20
2011,07,05,07,40,0.20
2011,07,05,07,41,1.20
2011,07,05,07,42,0.90
2011,07,05,07,43,0.10
2011,07,05,07,44,0.60
2011,07,05,07,45,0.10
2011,07,05,07,46,2.60
2011,07,05,07,47,0.90
2011,07,05,07,48,1.00
2011,07,05,07,49,2.60
2011,07,05,07,50,4.10
2011,07,05,07,51,3.00
2011,07,05,07,52,2.10
2011,07,05,07,53,0.30
2011,07,05,07,54,0.00
2011,07,05,07,55,0.00
2011,07,05,07,56,0.20
2011,07,05,07,57,0.50
2011,07,05,07,58,1.10
2011,07,05,07,59,0.70
2011,07,05,08,00,2.70
2011,07,05,08,01,2.00
2011,07,05,08,02,1.10
2011,07,05,08,03,1.60
2011,07,05,08,04,1.50
2011,07,05,08,05,0.80
2011,07,05,08,06,0.80
2011,07,05,08,07,2.20
2011,07,05,08,08,4.00
2011,07,05,08,09,3.30
2011,07,05,08,10,2.70
2011,07,05,08,11,1.90
2011,07,05,08,12,1.20
2011,07,05,08,13,3.60
2011,07,05,08,14,1.90
2011,07,05,08,15,3.00
2011,07,05,08,16,2.60
2011,07,05,08,17,3.80
2011,07,05,08,18,3.10
2011,07,05,08,19,2.60
2011,07,05,08,20,4.90
2011,07,05,08,21,4.40
2011,07,05,08,22,4.10
2011,07,05,08,23,4.40
2011,07,05,08,24,4.50
2011,07,05,08,25,4.60
2011,07,05,08,26,2.40
2011,07,05,08,27,3.80
2011,07,05,08,28,3.10
2011,07,05,08,29,5.20
2011,07,05,08,30,4.40
2011,07,05,08,31,4.90
2011,07,05,08,32,4.40
2011,07,05,08,33,5.20
2011,07,05,08,34,4.90
2011,07,05,08,35,4.10
2011,07,05,08,36,4.50
2011,07,05,08,37,2.20
2011,07,05,08,38,2.10
2011,07,05,08,39,1.10
2011,07,05,08,40,2.90
2011,07,05,08,41,3.80
2011,07,05,08,42,4.10
2011,07,05,08,43,1.10
2011,07,05,08,44,1.90
2011,07,05,08,45,3.40
2011,07,05,08,46,2.50
2011,07,05,08,47,1.40
2011,07,05,08,48,0.20
2011,07,05,08,49,3.10
2011,07,05,08,50,1.70
2011,07,05,08,51,1.40
2011,07,05,08,52,2.50
2011,07,05,08,53,4.10
2011,07,05,08,54,3.40
2011,07,05,08,55,2.60
2011,07,05,08,56,3.40
2011,07,05,08,57,3.70
2011,07,05,08,58,2.90
2011,07,05,08,59,1.40
2011,07,05,09,00,3.50
2011,07,05,09,01,2.90
2011,07,05,09,02,2.80
2011,07,05,09,03,3.30
2011,07,05,09,04,3.20
2011,07,05,09,05,3.60
2011,07,05,09,06,2.90
2011,07,05,09,07,4.00
2011,07,05,09,08,2.50
2011,07,05,09,09,0.80
2011,07,05,09,10,0.80
2011,07,05,09,11,1.50
2011,07,05,09,12,1.50
2011,07,05,09,13,1.60
2011,07,05,09,14,2.50
2011,07,05,09,15,1.20
2011,07,05,09,16,1.00
2011,07,05,09,17,0.20
2011,07,05,09,18,2.60
2011,07,05,09,19,3.00
2011,07,05,09,20,2.60
2011,07,05,09,21,0.90
2011,07,05,09,22,1.70
2011,07,05,09,23,0.60
2011,07,05,09,24,0.90
2011,07,05,09,25,1.10
2011,07,05,09,26,1.80
2011,07,05,09,27,1.90
2011,07,05,09,28,0.30
2011,07,05,09,29,1.40
2011,07,05,09,30,3.10
2011,07,05,09,31,1.50
2011,07,05,09,32,1.30
2011,07,05,09,33,0.70
2011,07,05,09,34,2.70
2011,07,05,09,35,3.10
2011,07,05,09,36,4.60
2011,07,05,09,37,3.20
2011,07,05,09,38,4.30
2011,07,05,09,39,3.80
2011,07,05,09,40,3.60
2011,07,05,09,41,3.90
2011,07,05,09,42,4.50
2011,07,05,09,43,2.90
2011,07,05,09,44,4.00
2011,07,05,09,45,4.70
2011,07,05,09,46,5.50
2011,07,05,09,47,2.80
2011,07,05,09,48,5.20
2011,07,05,09,49,4.70
2011,07,05,09,50,3.30
2011,07,05,09,51,4.30
2011,07,05,09,52,3.50
2011,07,05,09,53,5.70
2011,07,05,09,54,4.80
2011,07,05,09,55,3.40
2011,07,05,09,56,5.00
2011,07,05,09,57,5.60
2011,07,05,09,58,4.00
2011,07,05,09,59,4.80
2011,07,05,10,00,4.70
2011,07,05,10,01,5.60
2011,07,05,10,02,5.20
2011,07,05,10,03,1.80
2011,07,05,10,04,4.20
2011,07,05,10,05,3.60
2011,07,05,10,06,3.30
2011,07,05,10,07,2.20
2011,07,05,10,08,0.70
2011,07,05,10,09,5.10
2011,07,05,10,10,3.30
2011,07,05,10,11,5.20
2011,07,05,10,12,0.20
2011,07,05,10,13,1.60
2011,07,05,10,14,3.20
2011,07,05,10,15,2.70
2011,07,05,10,16,0.60
2011,07,05,10,17,2.30
2011,07,05,10,18,4.30
2011,07,05,10,19,6.90
2011,07,05,10,20,4.00
2011,07,05,10,21,5.00
2011,07,05,10,22,1.50
2011,07,05,10,23,5.00
2011,07,05,10,24,1.90
2011,07,05,10,25,4.70
2011,07,05,10,26,5.30
2011,07,05,10,27,2.50
2011,07,05,10,28,4.50
2011,07,05,10,29,3.40
2011,07,05,10,30,1.30
2011,07,05,10,31,2.70
2011,07,05,10,32,2.30
2011,07,05,10,33,2.20
2011,07,05,10,34,4.70
2011,07,05,10,35,1.50
2011,07,05,10,36,2.50
2011,07,05,10,37,1.50
2011,07,05,10,38,2.40
2011,07,05,10,39,1.20
2011,07,05,10,40,2.20
2011,07,05,10,41,2.60
2011,07,05,10,42,0.10
2011,07,05,10,43,2.80
2011,07,05,10,44,4.70
2011,07,05,10,45,2.50
2011,07,05,10,46,2.70
2011,07,05,10,47,3.60
2011,07,05,10,48,2.70
2011,07,05,10,49,3.20
2011,07,05,10,50,5.70
2011,07,05,10,51,6.10
2011,07,05,10,52,5.20
2011,07,05,10,53,3.50
2011,07,05,10,54,5.60
2011,07,05,10,55,4.80
2011,07,05,10,56,0.00
2011,07,05,10,57,2.60
2011,07,05,10,58,5.10
2011,07,05,10,59,4.20
2011,07,05,11,00,2.60
2011,07,05,11,01,2.30
2011,07,05,11,02,2.20
2011,07,05,11,03,0.40
2011,07,05,11,04,1.40
2011,07,05,11,05,3.50
2011,07,05,11,06,1.00
2011,07,05,11,07,0.10
2011,07,05,11,08,2.40
2011,07,05,11,09,3.90
2011,07,05,11,10,1.50
2011,07,05,11,11,2.50
2011,07,05,11,12,2.70
2011,07,05,11,13,6.20
2011,07,05,11,14,4.80
2011,07,05,11,15,1.40
2011,07,05,11,16,2.90
2011,07,05,11,17,6.80
2011,07,05,11,18,4.70
2011,07,05,11,19,5.50
2011,07,05,11,20,4.70
2011,07,05,11,21,3.20
2011,07,05,11,22,6.80
2011,07,05,11,23,6.00
2011,07,05,11,24,7.20
2011,07,05,11,25,5.50
2011,07,05,11,26,5.90
2011,07,05,11,27,6.40
2011,07,05,11,28,6.80
2011,07,05,11,29,7.00
2011,07,05,11,30,5.70
2011,07,05,11,31,3.50
2011,07,05,11,32,4.50
2011,07,05,11,33,6.30
2011,07,05,11,34,6.80
2011,07,05,11,35,4.80
2011,07,05,11,36,3.90
2011,07,05,11,37,5.10
2011,07,05,11,38,5.00
2011,07,05,11,39,7.00
2011,07,05,11,40,7.20
2011,07,05,11,41,6.60
2011,07,05,11,42,4.70
2011,07,05,11,43,4.60
2011,07,05,11,44,5.50
2011,07,05,11,45,5.60
2011,07,05,11,46,4.40
2011,07,05,11,47,2.80
2011,07,05,11,48,4.70
2011,07,05,11,49,5.60
2011,07,05,11,50,4.50
2011,07,05,11,51,3.50
2011,07,05,11,52,5.00
2011,07,05,11,53,6.70
2011,07,05,11,54,5.70
2011,07,05,11,55,4.30
2011,07,05,11,56,6.40
2011,07,05,11,57,4.40
2011,07,05,11,58,3.00
2011,07,05,11,59,2.60
2011,07,05,12,00,5.30
2011,07,05,12,01,6.20
2011,07,05,12,02,5.70
2011,07,05,12,03,3.50
2011,07,05,12,04,6.30
2011,07,05,12,05,7.80
2011,07,05,12,06,7.20
2011,07,05,12,07,6.00
2011,07,05,12,08,6.00
2011,07,05,12,09,6.80
2011,07,05,12,10,6.70
2011,07,05,12,11,4.90
2011,07,05,12,12,5.10
2011,07,05,12,13,5.10
2011,07,05,12,14,4.70
2011,07,05,12,15,4.70
2011,07,05,12,16,3.70
2011,07,05,12,17,1.80
2011,07,05,12,18,8.10
2011,07,05,12,19,6.00
2011,07,05,12,20,7.20
2011,07,05,12,21,5.70
2011,07,05,12,22,4.40
2011,07,05,12,23,3.50
2011,07,05,12,24,3.00
2011,07,05,12,25,3.40
2011,07,05,12,26,3.10
2011,07,05,12,27,6.80
2011,07,05,12,28,4.10
2011,07,05,12,29,1.80
2011,07,05,12,30,0.70
2011,07,05,12,31,3.00
2011,07,05,12,32,5.50
2011,07,05,12,33,7.40
2011,07,05,12,34,5.80
2011,07,05,12,35,4.80
2011,07,05,12,36,5.80
2011,07,05,12,37,6.60
2011,07,05,12,38,3.00
2011,07,05,12,39,2.60
2011,07,05,12,40,2.70
2011,07,05,12,41,5.00
2011,07,05,12,42,2.70
2011,07,05,12,43,3.30
2011,07,05,12,44,3.00
2011,07,05,12,45,0.90
2011,07,05,12,46,5.60
2011,07,05,12,47,2.60
2011,07,05,12,48,2.90
2011,07,05,12,49,5.40
2011,07,05,12,50,5.80
2011,07,05,12,51,4.30
2011,07,05,12,52,4.10
2011,07,05,12,53,5.40
2011,07,05,12,54,6.50
2011,07,05,12,55,7.10
2011,07,05,12,56,9.00
2011,07,05,12,57,8.60
2011,07,05,12,58,8.50
2011,07,05,12,59,8.10
2011,07,05,13,00,7.50
2011,07,05,13,01,10.80
2011,07,05,13,02,8.40
2011,07,05,13,03,8.70
2011,07,05,13,04,9.70
2011,07,05,13,05,11.00
2011,07,05,13,06,12.00
2011,07,05,13,07,11.20
2011,07,05,13,08,11.80
2011,07,05,13,09,12.10
2011,07,05,13,10,8.70
2011,07,05,13,11,6.80
2011,07,05,13,12,14.40
2011,07,05,13,13,9.70
2011,07,05,13,14,9.00
2011,07,05,13,15,10.20
2011,07,05,13,16,10.80
2011,07,05,13,17,7.70
2011,07,05,13,18,8.50
2011,07,05,13,19,6.00
2011,07,05,13,20,7.60
2011,07,05,13,21,5.80
2011,07,05,13,22,7.50
2011,07,05,13,23,9.20
2011,07,05,13,24,13.00
2011,07,05,13,25,11.40
2011,07,05,13,26,12.20
2011,07,05,13,27,12.10
2011,07,05,13,28,11.80
2011,07,05,13,29,10.80
2011,07,05,13,30,9.00
2011,07,05,13,31,10.40
2011,07,05,13,32,4.40
2011,07,05,13,33,9.00
2011,07,05,13,34,6.10
2011,07,05,13,35,11.10
2011,07,05,13,36,11.40
2011,07,05,13,37,8.70
2011,07,05,13,38,10.50
2011,07,05,13,39,9.30
2011,07,05,13,40,10.70
2011,07,05,13,41,10.00
2011,07,05,13,42,10.50
2011,07,05,13,43,11.20
2011,07,05,13,44,11.10
2011,07,05,13,45,9.10
2011,07,05,13,46,8.20
2011,07,05,13,47,6.80
2011,07,05,13,48,6.50
2011,07,05,13,49,7.60
2011,07,05,13,50,6.60
2011,07,05,13,51,4.50
2011,07,05,13,52,5.40
2011,07,05,13,53,6.20
2011,07,05,13,54,6.60
2011,07,05,13,55,8.00
2011,07,05,13,56,8.60
2011,07,05,13,57,6.60
2011,07,05,13,58,6.40
2011,07,05,13,59,7.50
2011,07,05,14,00,7.30
2011,07,05,14,01,4.70
2011,07,05,14,02,3.70
2011,07,05,14,03,4.70
2011,07,05,14,04,5.80
2011,07,05,14,05,5.00
2011,07,05,14,06,3.10
2011,07,05,14,07,2.30
2011,07,05,14,08,5.30
2011,07,05,14,09,8.80
2011,07,05,14,10,6.50
2011,07,05,14,11,4.70
2011,07,05,14,12,7.60
2011,07,05,14,13,10.20
2011,07,05,14,14,9.30
2011,07,05,14,15,8.40
2011,07,05,14,16,5.20
2011,07,05,14,17,5.70
2011,07,05,14,18,4.60
2011,07,05,14,19,7.00
2011,07,05,14,20,9.00
2011,07,05,14,21,8.00
2011,07,05,14,22,7.60
2011,07,05,14,23,9.30
2011,07,05,14,24,7.00
2011,07,05,14,25,2.80
2011,07,05,14,26,10.60
2011,07,05,14,27,9.40
2011,07,05,14,28,9.60
2011,07,05,14,29,10.90
2011,07,05,14,30,7.20
2011,07,05,14,31,7.70
2011,07,05,14,32,8.10
2011,07,05,14,33,9.50
2011,07,05,14,34,10.40
2011,07,05,14,35,11.00
2011,07,05,14,36,8.40
2011,07,05,14,37,9.10
2011,07,05,14,38,11.40
2011,07,05,14,39,8.80
2011,07,05,14,40,10.30
2011,07,05,14,41,9.70
2011,07,05,14,42,10.10
2011,07,05,14,43,9.90
2011,07,05,14,44,9.90
2011,07,05,14,45,8.40
2011,07,05,14,46,11.30
2011,07,05,14,47,10.40
2011,07,05,14,48,13.40
2011,07,05,14,49,10.90
2011,07,05,14,50,8.40
2011,07,05,14,51,8.50
2011,07,05,14,52,8.80
2011,07,05,14,53,7.60
2011,07,05,14,54,7.60
2011,07,05,14,55,3.60
2011,07,05,14,56,6.00
2011,07,05,14,57,5.70
2011,07,05,14,58,6.40
2011,07,05,14,59,1.20
2011,07,05,15,00,5.60
2011,07,05,15,01,6.80
2011,07,05,15,02,6.60
2011,07,05,15,03,4.80
2011,07,05,15,04,5.50
2011,07,05,15,05,4.40
2011,07,05,15,06,8.50
2011,07,05,15,07,4.40
2011,07,05,15,08,9.20
2011,07,05,15,09,7.20
2011,07,05,15,10,7.20
2011,07,05,15,11,7.00
2011,07,05,15,12,4.60
2011,07,05,15,13,4.20
2011,07,05,15,14,6.60
2011,07,05,15,15,8.40
2011,07,05,15,16,3.90
2011,07,05,15,17,5.00
2011,07,05,15,18,6.90
2011,07,05,15,19,4.40
2011,07,05,15,20,5.80
2011,07,05,15,21,3.00
2011,07,05,15,22,4.10
2011,07,05,15,23,4.50
2011,07,05,15,24,3.30
2011,07,05,15,25,1.70
2011,07,05,15,26,7.80
2011,07,05,15,27,4.80
2011,07,05,15,28,3.20
2011,07,05,15,29,3.40
2011,07,05,15,30,5.80
2011,07,05,15,31,6.40
2011,07,05,15,32,7.70
2011,07,05,15,33,2.40
2011,07,05,15,34,1.40
2011,07,05,15,35,2.20
2011,07,05,15,36,2.20
2011,07,05,15,37,7.30
2011,07,05,15,38,8.70
2011,07,05,15,39,3.50
2011,07,05,15,40,2.30
2011,07,05,15,41,8.20
2011,07,05,15,42,7.20
2011,07,05,15,43,9.40
2011,07,05,15,44,3.60
2011,07,05,15,45,10.10
2011,07,05,15,46,4.80
2011,07,05,15,47,7.60
2011,07,05,15,48,6.20
2011,07,05,15,49,3.60
2011,07,05,15,50,0.00
2011,07,05,15,51,1.30
2011,07,05,15,52,1.20
2011,07,05,15,53,5.10
2011,07,05,15,54,7.00
2011,07,05,15,55,5.80
2011,07,05,15,56,4.30
2011,07,05,15,57,7.70
2011,07,05,15,58,9.30
2011,07,05,15,59,2.80
2011,07,05,16,00,6.80
2011,07,05,16,01,10.30
2011,07,05,16,02,3.10
2011,07,05,16,03,5.90
2011,07,05,16,04,6.30
2011,07,05,16,05,6.50
2011,07,05,16,06,5.70
2011,07,05,16,07,4.90
2011,07,05,16,08,3.60
2011,07,05,16,09,7.60
2011,07,05,16,10,3.90
2011,07,05,16,11,7.10
2011,07,05,16,12,3.60
2011,07,05,16,13,1.90
2011,07,05,16,14,1.90
2011,07,05,16,15,3.10
2011,07,05,16,16,6.00
2011,07,05,16,17,8.00
2011,07,05,16,18,3.50
2011,07,05,16,19,3.20
2011,07,05,16,20,0.00
2011,07,05,16,21,0.30
2011,07,05,16,22,8.40
2011,07,05,16,23,6.90
2011,07,05,16,24,4.50
2011,07,05,16,25,3.90
2011,07,05,16,26,4.70
2011,07,05,16,27,4.70
2011,07,05,16,28,4.10
2011,07,05,16,29,5.00
2011,07,05,16,30,6.90
2011,07,05,16,31,7.60
2011,07,05,16,32,5.30
2011,07,05,16,33,10.00
2011,07,05,16,34,5.30
2011,07,05,16,35,8.10
2011,07,05,16,36,8.90
2011,07,05,16,37,7.20
2011,07,05,16,38,8.40
2011,07,05,16,39,5.20
2011,07,05,16,40,2.90
2011,07,05,16,41,4.60
2011,07,05,16,42,3.50
2011,07,05,16,43,2.50
2011,07,05,16,44,3.00
2011,07,05,16,45,0.80
2011,07,05,16,46,5.30
2011,07,05,16,47,3.90
2011,07,05,16,48,2.70
2011,07,05,16,49,1.80
2011,07,05,16,50,4.60
2011,07,05,16,51,4.10
2011,07,05,16,52,5.80
2011,07,05,16,53,2.70
2011,07,05,16,54,3.60
2011,07,05,16,55,9.30
2011,07,05,16,56,5.90
2011,07,05,16,57,8.50
2011,07,05,16,58,8.30
2011,07,05,16,59,6.50
2011,07,05,17,00,6.60
2011,07,05,17,01,4.70
2011,07,05,17,02,4.90
2011,07,05,17,03,6.80
2011,07,05,17,04,6.50
2011,07,05,17,05,5.30
2011,07,05,17,06,1.00
2011,07,05,17,07,1.90
2011,07,05,17,08,6.50
2011,07,05,17,09,4.30
2011,07,05,17,10,4.40
2011,07,05,17,11,5.50
2011,07,05,17,12,7.00
2011,07,05,17,13,6.00
2011,07,05,17,14,5.50
2011,07,05,17,15,6.00
2011,07,05,17,16,8.40
2011,07,05,17,17,5.20
2011,07,05,17,18,4.80
2011,07,05,17,19,7.30
2011,07,05,17,20,8.70
2011,07,05,17,21,8.00
2011,07,05,17,22,3.40
2011,07,05,17,23,5.50
2011,07,05,17,24,7.20
2011,07,05,17,25,7.20
2011,07,05,17,26,5.20
2011,07,05,17,27,6.60
2011,07,05,17,28,3.50
2011,07,05,17,29,7.30
2011,07,05,17,30,7.40
2011,07,05,17,31,6.50
2011,07,05,17,32,3.80
2011,07,05,17,33,5.20
2011,07,05,17,34,6.80
2011,07,05,17,35,7.10
2011,07,05,17,36,5.90
2011,07,05,17,37,8.00
2011,07,05,17,38,8.50
2011,07,05,17,39,3.90
2011,07,05,17,40,3.20
2011,07,05,17,41,3.40
2011,07,05,17,42,2.50
2011,07,05,17,43,6.70
2011,07,05,17,44,13.30
2011,07,05,17,45,11.30
2011,07,05,17,46,7.30
2011,07,05,17,47,7.20
2011,07,05,17,48,5.70
2011,07,05,17,49,9.30
2011,07,05,17,50,5.50
2011,07,05,17,51,2.90
2011,07,05,17,52,3.10
2011,07,05,17,53,9.20
2011,07,05,17,54,5.90
2011,07,05,17,55,11.40
2011,07,05,17,56,9.50
2011,07,05,17,57,3.40
2011,07,05,17,58,7.20
2011,07,05,17,59,7.40
2011,07,05,18,00,8.90
2011,07,05,18,01,11.10
2011,07,05,18,02,11.20
2011,07,05,18,03,7.40